Anchialos, Greece

6:05 AM EET on November 23, 2017 (GMT +0200)
Almiros Air Base

Weather History for LGBL - June, 2013

Change the Weather History Date:

Sunday, June 30, 2013

  Actual Average Record
Temperature  
Mean Temperature 74 °F -  
Max Temperature 84 °F - - ()
Min Temperature 64 °F - - ()
Cooling Degree Days 9    
Growing Degree Days 24 (Base 50)    
Moisture  
Dew Point 47 °F    
Average Humidity 36    
Maximum Humidity 52    
Minimum Humidity 25    
Precipitation  
Precipitation 0.00 in - - ()
Sea Level Pressure  
Sea Level Pressure 29.80 in    
Wind  
Wind Speed 8 mph ()    
Max Wind Speed 16 mph    
Max Gust Speed -    
Visibility 6.2 miles    
Events      
T = Trace of Precipitation, MM = Missing Value Source: Averaged Metar Reports

Daily Weather History Graph

Daily Weather History Graph

Search for Another Location

Airport or City:

Trip Planner

Search our weather history database for the weather conditions in past years. The results will help you decide how hot, cold, wet, or windy it might be!

Date:

Astronomy

Jun. 30, 2013 Rise Set
Actual Time 6:05 AM EEST 8:59 PM EEST
Civil Twilight 5:33 AM EEST 9:31 PM EEST
Nautical Twilight 4:52 AM EEST 10:11 PM EEST
Astronomical Twilight 4:06 AM EEST 10:58 PM EEST
Moon 12:52 AM EEST (6/30) 1:56 PM EEST (6/30)
Length of Visible Light 15h 57m
Length of Day
14h 53m
Waning Gibbous, 48% of the Moon is Illuminated
Jun 30
Waning Gibbous
Jul 8
New
Jul 16
First Quarter
Jul 22
Full
Jul 29
Last Quarter

Hourly Weather History & Observations

Time (EEST) Temp. Dew Point Humidity Pressure Visibility Wind Dir Wind Speed Gust Speed Precip Events Conditions
12:50 AM 71.6 °F 48.2 °F 43% 29.80 in 6.2 mi WNW 10.4 mph - N/A   Partly Cloudy
1:50 AM 69.8 °F 44.6 °F 40% 29.80 in 6.2 mi NNW 8.1 mph - N/A   Partly Cloudy
2:50 AM 68.0 °F 46.4 °F 46% 29.80 in 6.2 mi West 6.9 mph - N/A   Partly Cloudy
3:50 AM 66.2 °F 46.4 °F 49% 29.77 in 6.2 mi West 6.9 mph - N/A   Partly Cloudy
4:50 AM 66.2 °F 46.4 °F 49% 29.77 in 6.2 mi West 4.6 mph - N/A   Partly Cloudy
5:50 AM 64.4 °F 46.4 °F 52% 29.77 in 6.2 mi WNW 9.2 mph - N/A   Partly Cloudy
6:50 AM 66.2 °F 46.4 °F 49% 29.80 in - West 6.9 mph - N/A   Clear
7:20 AM 66.2 °F 46.4 °F 49% 29.77 in - WNW 5.8 mph - N/A   Clear
7:50 AM 69.8 °F 46.4 °F 43% 29.80 in - NW 5.8 mph - N/A   Clear
8:20 AM 71.6 °F 46.4 °F 41% 29.80 in - NW 10.4 mph - N/A   Clear
8:50 AM 73.4 °F 44.6 °F 36% 29.80 in - WNW 11.5 mph - N/A   Clear
9:20 AM 75.2 °F 44.6 °F 34% 29.80 in - WNW 11.5 mph - N/A   Clear
9:50 AM 75.2 °F 44.6 °F 34% 29.80 in - WNW 11.5 mph - N/A   Clear
10:20 AM 77.0 °F 46.4 °F 34% 29.80 in - West 10.4 mph - N/A   Clear
10:50 AM 78.8 °F 46.4 °F 32% 29.80 in 6.2 mi West 10.4 mph - N/A   Partly Cloudy
11:20 AM 78.8 °F 46.4 °F 32% 29.80 in 6.2 mi West 12.7 mph - N/A   Partly Cloudy
11:50 AM 80.6 °F 44.6 °F 28% 29.80 in 6.2 mi WNW 10.4 mph - N/A   Partly Cloudy
12:20 PM 82.4 °F 44.6 °F 26% 29.80 in 6.2 mi WNW 9.2 mph - N/A   Partly Cloudy
12:50 PM 78.8 °F 44.6 °F 30% 29.80 in 6.2 mi NW 6.9 mph - N/A   Scattered Clouds
1:20 PM 80.6 °F 46.4 °F 30% 29.80 in 6.2 mi NW 9.2 mph - N/A   Scattered Clouds
1:50 PM 82.4 °F 44.6 °F 26% 29.77 in 6.2 mi WNW 11.5 mph - N/A   Scattered Clouds
2:20 PM 82.4 °F 46.4 °F 28% 29.77 in 6.2 mi WNW 11.5 mph - N/A   Scattered Clouds
2:50 PM 82.4 °F 44.6 °F 26% 29.77 in 6.2 mi West 13.8 mph - N/A   Scattered Clouds
3:20 PM 82.4 °F 46.4 °F 28% 29.77 in 6.2 mi West 16.1 mph - N/A   Scattered Clouds
3:50 PM 84.2 °F 44.6 °F 25% 29.77 in 6.2 mi West 13.8 mph - N/A   Scattered Clouds
4:20 PM 80.6 °F 51.8 °F 37% 29.77 in 6.2 mi ENE 8.1 mph - N/A   Scattered Clouds
4:50 PM 80.6 °F 50.0 °F 34% 29.77 in 6.2 mi ENE 8.1 mph - N/A   Scattered Clouds
5:20 PM 82.4 °F 48.2 °F 30% 29.77 in 6.2 mi NNW 9.2 mph - N/A   Scattered Clouds
5:50 PM 82.4 °F 46.4 °F 28% 29.77 in 6.2 mi NNW 11.5 mph - N/A   Scattered Clouds
6:20 PM 80.6 °F 46.4 °F 30% 29.77 in 6.2 mi NW 9.2 mph - N/A   Scattered Clouds
6:50 PM 80.6 °F 46.4 °F 30% 29.77 in 6.2 mi NNW 8.1 mph - N/A   Scattered Clouds
7:20 PM 82.4 °F 48.2 °F 30% 29.80 in 6.2 mi NW 5.8 mph - N/A   Scattered Clouds
7:50 PM 80.6 °F 46.4 °F 30% 29.80 in 6.2 mi NNW 5.8 mph - N/A   Scattered Clouds
8:20 PM 78.8 °F 48.2 °F 34% 29.80 in 6.2 mi NNE 8.1 mph - N/A   Scattered Clouds
8:50 PM 77.0 °F 48.2 °F 36% 29.83 in 6.2 mi NNE 8.1 mph - N/A   Partly Cloudy
9:50 PM 73.4 °F 46.4 °F 38% 29.86 in 6.2 mi NNW 4.6 mph - N/A   Partly Cloudy
10:50 PM 69.8 °F 50.0 °F 49% 29.89 in 6.2 mi Calm Calm - N/A   Partly Cloudy
11:50 PM 68.0 °F 50.0 °F 52% 29.89 in - West 4.6 mph - N/A   Clear